Location: Borealis Mine
(38.3824°N, 118.7610°W)
Time: 17:19:15
(UTC+00:00)

Cosmos 1812 - Pass Details

Date: 18 September 2020
Orbit: 517 x 521 km, 82.5° (Epoch: 19 October)

Event Time Altitude Azimuth Distance (km) Brightness Sun altitude
Exits shadow 12:35:56 20° 236° (SW) 1,247 4.1 -13.2°
Maximum altitude 12:37:49 30° 282° (WNW) 945 3.5 -12.9°
Drops below altitude 10° 12:41:16 10° 345° (NNW) 1,760 5.4 -12.2°
Sets 12:43:36 0° 357° (N) 2,653 6.4 -11.8°
